sat.trackr.live / text

‹ back to catalog

STARLINK-1654

NORAD 46326 · 2020-062B

PAYLOAD ACTIVE UNKNOWN

§ Identity

Operator
Country
US
Launch date
2020-09-03
Launch site
AFETR
Launch vehicle
Mass (kg)
RCS (m²)

Purposes: comms

External: N2YO · Heavens-Above · Gunter

§ Orbital elements

Epoch: 2026-05-25T06:00:02.000160Z

Period
90.39 min
Inclination
53.0370°
Eccentricity
0.0007772
Mean motion
15.93076177 rev/d
Perigee alt
288.5 km
Apogee alt
298.9 km
Semi-major
6,671.8 km
B*
8.9602e-4
RAAN
309.7307°
Arg perigee
255.8252°
Mean anomaly
248.3842°
Rev number
569

§ Raw data

STARLINK-16541 46326U 20062B   26145.25002315  .00319748  50263-4  89602-3 0  99972 46326  53.0370 309.7307 0007772 255.8252 248.3842 15.93076177  5699

JSON: /api/v1/satellites/46326 · /tle

For live sub-satellite position, see the globe view (requires WebGL).

§ Visibility from observer

Set your observer location to see the next 7 days of passes ≥ 10°. The values pass through the URL so the page stays shareable.

No JS? Fill the form by hand. The geolocation button needs JavaScript.